Tracking 20232 objects as of 19-Jan-2020
HD Live streaming from Space Station
objects crossing your sky now

OPS 9315 (IDSCS 5)

Track OPS 9315 (IDSCS 5) now!
OPS 9315 (IDSCS 5) is classified as:


NORAD ID: 2219
Int'l Code: 1966-053F
Perigee: 33,721.0 km
Apogee: 34,093.5 km
Inclination: 4.2 °
Period: 1,340.8 minutes
Semi major axis: 40278 km
RCS: 0.3162 m2 (medium)
Launch date: June 16, 1966
Source: United States (US)
Launch site: AIR FORCE EASTERN TEST RANGE (AFETR)
aabbcc
Your satellite tracking list
Your tracking list is empty




NASA's NSSDC Master Catalog

Two Line Element Set (TLE):
1  2219U 66053F   20015.30582258 -.00000075  00000-0  00000+0 0  9997
2  2219   4.1938  59.7369 0046231 130.5013 229.9032  1.07398210114193
Source of the keplerian elements: AFSPC